QPF
0.02 0.02 0.02 0.03 0.02 0.01 0.01 0.00 0.00 0.00 0.00 0.00 0.00 0.01 0.01 0.01 0.02 0.02 0.02 0.01 0.01 0.01 0.01 0.01 0.02 0.02 0.02 0.04 0.04 0.04 0.04 0.04 0.04 0.03 0.03 0.05 0.05 0.05 0.05 0.05 0.07 0.10 0.13 0.10 0.10 0.16 0.15 0.14 0.12
0.01 0.01 0.02 0.02 0.01 0.01 0.01 0.01 0.00 0.00 0.00 0.00 0.00 0.00 0.01 0.00 0.01 0.01 0.01 0.01 0.00 0.00 0.01 0.01 0.03 0.04 0.02 0.02 0.02 0.02 0.03 0.04 0.03 0.03 0.03 0.04 0.03 0.03 0.03 0.05 0.07 0.10 0.10 0.07 0.09 0.20 0.17 0.14 0.14
0.00 0.01 0.02 0.01 0.01 0.01 0.01 0.00 0.00 0.00 0.00 0.00 0.00 0.00 0.00 0.00 0.01 0.01 0.01 0.01 0.00 0.00 0.00 0.01 0.03 0.03 0.01 0.02 0.02 0.02 0.03 0.03 0.04 0.04 0.04 0.04 0.03 0.04 0.04 0.06 0.08 0.09 0.08 0.07 0.11 0.23 0.20 0.18 0.13
0.01 0.01 0.01 0.00 0.01 0.01 0.00 0.01 0.01 0.01 0.01 0.00 0.01 0.01 0.00 0.01 0.01 0.01 0.01 0.00 0.00 0.00 0.00 0.01 0.02 0.02 0.02 0.03 0.03 0.02 0.02 0.03 0.04 0.06 0.05 0.04 0.04 0.04 0.05 0.07 0.08 0.09 0.07 0.08 0.12 0.20 0.21 0.18 0.11
0.01 0.00 0.00 0.00 0.00 0.01 0.01 0.01 0.02 0.01 0.01 0.01 0.01 0.01 0.01 0.01 0.01 0.01 0.00 0.00 0.00 0.00 0.00 0.01 0.02 0.01 0.01 0.02 0.02 0.02 0.03 0.04 0.04 0.05 0.05 0.04 0.04 0.05 0.05 0.06 0.08 0.08 0.08 0.10 0.11 0.15 0.17 0.14 0.10
0.01 0.00 0.00 0.00 0.00 0.00 0.01 0.01 0.01 0.02 0.01 0.01 0.01 0.01 0.02 0.01 0.01 0.00 0.00 0.00 0.00 0.00 0.00 0.00 0.01 0.01 0.01 0.02 0.03 0.02 0.02 0.04 0.05 0.06 0.05 0.04 0.05 0.05 0.04 0.06 0.07 0.07 0.09 0.09 0.11 0.11 0.11 0.10 0.09
0.01 0.00 0.00 0.00 0.00 0.00 0.02 0.01 0.01 0.01 0.01 0.01 0.01 0.01 0.02 0.01 0.01 0.01 0.00 0.00 0.00 0.00 0.00 0.00 0.00 0.01 0.01 0.03 0.03 0.02 0.03 0.03 0.03 0.03 0.03 0.04 0.05 0.06 0.05 0.06 0.06 0.07 0.09 0.08 0.07 0.07 0.07 0.07 0.07
0.00 0.00 0.00 0.00 0.00 0.00 0.01 0.01 0.02 0.02 0.01 0.01 0.01 0.01 0.01 0.00 0.00 0.01 0.00 0.01 0.00 0.00 0.00 0.00 0.00 0.00 0.00 0.01 0.02 0.03 0.04 0.03 0.02 0.03 0.03 0.04 0.06 0.07 0.06 0.06 0.07 0.09 0.09 0.08 0.06 0.05 0.05 0.06 0.06
0.00 0.00 0.00 0.00 0.00 0.00 0.01 0.02 0.04 0.02 0.02 0.01 0.01 0.01 0.01 0.00 0.00 0.00 0.01 0.00 0.00 0.00 0.00 0.00 0.00 0.00 0.00 0.01 0.02 0.01 0.02 0.02 0.02 0.03 0.04 0.03 0.02 0.04 0.07 0.09 0.10 0.10 0.09 0.07 0.06 0.06 0.05 0.05 0.05
0.00 0.00 0.00 0.00 0.00 0.00 0.00 0.01 0.02 0.01 0.01 0.01 0.01 0.01 0.01 0.01 0.00 0.00 0.00 0.00 0.00 0.00 0.00 0.00 0.00 0.00 0.00 0.00 0.01 0.00 0.00 0.01 0.01 0.01 0.02 0.01 0.01 0.03 0.09 0.13 0.12 0.08 0.05 0.04 0.06 0.06 0.03 0.02 0.02
0.01 0.00 0.00 0.00 0.00 0.00 0.00 0.00 0.00 0.00 0.01 0.01 0.01 0.00 0.00 0.00 0.00 0.00 0.00 0.00 0.00 0.00 0.00 0.00 0.00 0.00 0.00 0.01 0.01 0.00 0.00 0.00 0.01 0.01 0.01 0.01 0.00 0.01 0.02 0.03 0.03 0.02 0.01 0.01 0.01 0.01 0.01 0.01 0.01
0.00 0.00 0.00 0.00 0.00 0.00 0.00 0.01 0.01 0.02 0.01 0.01 0.01 0.00 0.00 0.00 0.00 0.00 0.01 0.00 0.00 0.00 0.00 0.00 0.00 0.00 0.00 0.01 0.01 0.01 0.01 0.01 0.01 0.01 0.01 0.01 0.01 0.01 0.00 0.00 0.01 0.01 0.00 0.00 0.01 0.00 0.01 0.01 0.01
0.00 0.00 0.00 0.00 0.00 0.00 0.00 0.00 0.01 0.01 0.01 0.01 0.00 0.00 0.00 0.00 0.00 0.00 0.00 0.00 0.01 0.01 0.00 0.00 0.00 0.00 0.00 0.01 0.01 0.02 0.03 0.04 0.02 0.01 0.01 0.01 0.02 0.02 0.01 0.01 0.01 0.01 0.00 0.01 0.00 0.00 0.00 0.01 0.01
0.00 0.00 0.00 0.00 0.00 0.00 0.00 0.01 0.01 0.00 0.01 0.01 0.00 0.00 0.00 0.00 0.00 0.00 0.00 0.00 0.00 0.00 0.00 0.00 0.00 0.00 0.01 0.01 0.02 0.03 0.04 0.03 0.02 0.01 0.01 0.01 0.01 0.02 0.02 0.01 0.02 0.01 0.01 0.01 0.00 0.00 0.00 0.01 0.01
0.00 0.01 0.01 0.01 0.00 0.00 0.00 0.01 0.01 0.01 0.01 0.01 0.01 0.01 0.01 0.01 0.00 0.00 0.00 0.00 0.00 0.00 0.01 0.01 0.01 0.01 0.01 0.01 0.01 0.03 0.03 0.03 0.03 0.02 0.01 0.02 0.02 0.02 0.01 0.01 0.01 0.01 0.01 0.02 0.01 0.01 0.00 0.00 0.01
0.00 0.01 0.01 0.01 0.01 0.01 0.01 0.00 0.01 0.02 0.02 0.03 0.03 0.02 0.01 0.01 0.01 0.01 0.01 0.01 0.01 0.00 0.00 0.01 0.01 0.02 0.01 0.01 0.02 0.02 0.03 0.04 0.03 0.02 0.02 0.03 0.03 0.03 0.03 0.02 0.02 0.01 0.01 0.01 0.01 0.01 0.01 0.00 0.00
0.00 0.00 0.00 0.01 0.02 0.01 0.01 0.01 0.01 0.01 0.02 0.02 0.02 0.01 0.01 0.01 0.02 0.02 0.02 0.01 0.01 0.01 0.00 0.00 0.01 0.02 0.02 0.02 0.03 0.02 0.02 0.02 0.03 0.03 0.04 0.04 0.04 0.04 0.04 0.03 0.02 0.01 0.01 0.01 0.01 0.01 0.00 0.00 0.00
0.00 0.00 0.00 0.01 0.02 0.02 0.01 0.01 0.01 0.01 0.02 0.01 0.01 0.01 0.01 0.01 0.03 0.03 0.03 0.03 0.02 0.01 0.01 0.01 0.01 0.01 0.02 0.01 0.01 0.01 0.01 0.01 0.01 0.02 0.03 0.03 0.02 0.02 0.02 0.02 0.01 0.00 0.00 0.01 0.01 0.00 0.00 0.00 0.00
0.00 0.00 0.00 0.00 0.00 0.01 0.01 0.01 0.01 0.01 0.02 0.01 0.01 0.01 0.01 0.02 0.03 0.03 0.04 0.04 0.03 0.02 0.02 0.02 0.01 0.01 0.01 0.01 0.01 0.02 0.02 0.01 0.01 0.01 0.02 0.01 0.01 0.01 0.01 0.01 0.00 0.01 0.01 0.01 0.01 0.01 0.01 0.00 0.00
0.00 0.00 0.00 0.00 0.00 0.00 0.00 0.00 0.01 0.01 0.01 0.01 0.01 0.01 0.01 0.02 0.02 0.02 0.03 0.03 0.02 0.02 0.02 0.02 0.01 0.01 0.02 0.02 0.03 0.04 0.04 0.02 0.01 0.01 0.01 0.01 0.01 0.01 0.01 0.02 0.01 0.01 0.01 0.02 0.02 0.01 0.01 0.01 0.00
0.00 0.00 0.00 0.00 0.00 0.00 0.00 0.00 0.00 0.00 0.01 0.01 0.01 0.01 0.01 0.01 0.02 0.02 0.02 0.02 0.02 0.01 0.01 0.01 0.01 0.01 0.01 0.02 0.03 0.04 0.05 0.03 0.01 0.00 0.00 0.01 0.01 0.02 0.02 0.02 0.01 0.01 0.01 0.02 0.01 0.01 0.01 0.01 0.01
0.00 0.00 0.00 0.00 0.00 0.00 0.00 0.00 0.00 0.00 0.01 0.01 0.01 0.01 0.01 0.01 0.02 0.02 0.02 0.01 0.01 0.01 0.01 0.01 0.01 0.01 0.01 0.01 0.02 0.03 0.04 0.03 0.01 0.01 0.00 0.00 0.01 0.01 0.03 0.02 0.01 0.01 0.01 0.01 0.01 0.01 0.02 0.02 0.01
0.00 0.00 0.00 0.00 0.00 0.00 0.00 0.00 0.00 0.00 0.00 0.00 0.01 0.01 0.01 0.01 0.01 0.01 0.02 0.02 0.02 0.01 0.01 0.01 0.01 0.00 0.01 0.01 0.02 0.03 0.03 0.02 0.02 0.02 0.01 0.00 0.00 0.00 0.01 0.02 0.02 0.01 0.01 0.00 0.00 0.01 0.01 0.01 0.01
0.01 0.01 0.01 0.01 0.01 0.00 0.00 0.00 0.00 0.01 0.00 0.00 0.01 0.01 0.01 0.01 0.01 0.01 0.01 0.02 0.02 0.01 0.01 0.02 0.01 0.01 0.01 0.02 0.02 0.02 0.02 0.02 0.01 0.01 0.01 0.00 0.00 0.00 0.00 0.01 0.02 0.02 0.01 0.01 0.01 0.00 0.00 0.01 0.01
0.01 0.02 0.02 0.01 0.00 0.00 0.00 0.00 0.00 0.00 0.00 0.01 0.01 0.01 0.01 0.01 0.01 0.01 0.01 0.01 0.01 0.01 0.01 0.01 0.02 0.02 0.02 0.02 0.02 0.02 0.02 0.02 0.01 0.01 0.01 0.00 0.00 0.00 0.01 0.01 0.01 0.02 0.02 0.01 0.01 0.01 0.00 0.01 0.01
0.02 0.02 0.02 0.02 0.01 0.00 0.00 0.00 0.00 0.00 0.01 0.01 0.01 0.00 0.00 0.00 0.00 0.00 0.00 0.01 0.01 0.01 0.01 0.01 0.01 0.02 0.03 0.03 0.02 0.03 0.03 0.02 0.01 0.01 0.01 0.01 0.00 0.01 0.01 0.01 0.02 0.02 0.02 0.02 0.02 0.01 0.01 0.01 0.02
0.02 0.02 0.02 0.02 0.02 0.01 0.01 0.00 0.01 0.00 0.00 0.00 0.00 0.00 0.00 0.00 0.00 0.00 0.00 0.01 0.01 0.01 0.01 0.01 0.01 0.02 0.03 0.04 0.03 0.03 0.03 0.03 0.02 0.02 0.01 0.01 0.01 0.00 0.01 0.01 0.01 0.01 0.02 0.02 0.02 0.01 0.01 0.02 0.02
0.02 0.02 0.02 0.02 0.02 0.02 0.01 0.00 0.00 0.00 0.00 0.00 0.00 0.00 0.00 0.00 0.00 0.00 0.00 0.01 0.01 0.01 0.02 0.01 0.02 0.03 0.05 0.06 0.05 0.04 0.05 0.05 0.04 0.04 0.03 0.02 0.02 0.01 0.01 0.01 0.01 0.01 0.01 0.01 0.01 0.00 0.00 0.01 0.02
0.01 0.01 0.01 0.01 0.01 0.01 0.01 0.01 0.00 0.00 0.00 0.00 0.00 0.00 0.00 0.00 0.00 0.00 0.01 0.02 0.03 0.03 0.03 0.02 0.03 0.04 0.05 0.06 0.07 0.06 0.05 0.05 0.04 0.03 0.03 0.02 0.02 0.02 0.01 0.01 0.01 0.01 0.01 0.00 0.00 0.00 0.00 0.01 0.02
0.01 0.01 0.01 0.01 0.01 0.01 0.00 0.00 0.00 0.00 0.00 0.01 0.01 0.00 0.00 0.00 0.00 0.01 0.01 0.02 0.04 0.05 0.05 0.05 0.04 0.04 0.05 0.05 0.06 0.06 0.06 0.04 0.03 0.03 0.03 0.02 0.01 0.02 0.02 0.02 0.02 0.01 0.01 0.01 0.00 0.00 0.00 0.01 0.01
MSLP
1008.39 1009.54 1010.96 1012.48 1013.95 1015.24 1016.23 1016.90 1017.25 1017.34 1017.29 1017.17 1017.05 1016.97 1016.89 1016.79 1016.60 1016.28 1015.82 1015.25 1014.60 1013.95 1013.37 1012.89 1012.55 1012.33 1012.21 1012.13 1012.06 1011.97 1011.85 1011.71 1011.57 1011.46 1011.38 1011.33 1011.32 1011.32 1011.32 1011.30 1011.26 1011.20 1011.14 1011.10 1011.07 1011.09 1011.14 1011.23 1011.35
1009.06 1010.44 1012.01 1013.58 1015.00 1016.12 1016.88 1017.26 1017.31 1017.14 1016.87 1016.61 1016.42 1016.32 1016.29 1016.25 1016.15 1015.92 1015.55 1015.04 1014.46 1013.86 1013.32 1012.89 1012.60 1012.42 1012.33 1012.28 1012.24 1012.17 1012.08 1011.96 1011.84 1011.74 1011.67 1011.62 1011.60 1011.59 1011.58 1011.55 1011.50 1011.45 1011.41 1011.39 1011.40 1011.45 1011.53 1011.65 1011.79
1009.88 1011.43 1013.07 1014.62 1015.91 1016.83 1017.34 1017.44 1017.24 1016.85 1016.42 1016.07 1015.84 1015.75 1015.76 1015.79 1015.75 1015.59 1015.28 1014.83 1014.31 1013.77 1013.29 1012.91 1012.67 1012.54 1012.49 1012.47 1012.46 1012.41 1012.33 1012.22 1012.10 1011.99 1011.91 1011.85 1011.80 1011.77 1011.73 1011.69 1011.65 1011.63 1011.62 1011.66 1011.73 1011.84 1011.99 1012.15 1012.34
1010.79 1012.43 1014.06 1015.52 1016.65 1017.35 1017.62 1017.50 1017.10 1016.57 1016.05 1015.65 1015.42 1015.36 1015.41 1015.48 1015.49 1015.36 1015.09 1014.70 1014.22 1013.74 1013.32 1013.00 1012.81 1012.73 1012.71 1012.73 1012.72 1012.68 1012.60 1012.48 1012.35 1012.23 1012.12 1012.03 1011.96 1011.90 1011.85 1011.81 1011.79 1011.80 1011.86 1011.96 1012.12 1012.31 1012.54 1012.77 1013.00
1011.71 1013.35 1014.91 1016.22 1017.15 1017.66 1017.73 1017.45 1016.94 1016.35 1015.82 1015.44 1015.25 1015.22 1015.30 1015.39 1015.41 1015.30 1015.05 1014.68 1014.25 1013.83 1013.47 1013.22 1013.08 1013.04 1013.05 1013.07 1013.06 1013.00 1012.90 1012.77 1012.62 1012.47 1012.35 1012.24 1012.15 1012.08 1012.02 1011.99 1012.01 1012.07 1012.19 1012.38 1012.62 1012.91 1013.20 1013.50 1013.78
1012.54 1014.09 1015.51 1016.63 1017.38 1017.70 1017.64 1017.29 1016.76 1016.21 1015.74 1015.44 1015.31 1015.33 1015.43 1015.52 1015.53 1015.41 1015.16 1014.81 1014.43 1014.06 1013.77 1013.59 1013.50 1013.48 1013.50 1013.51 1013.47 1013.39 1013.26 1013.10 1012.94 1012.78 1012.65 1012.55 1012.46 1012.39 1012.35 1012.35 1012.40 1012.51 1012.70 1012.96 1013.27 1013.62 1013.98 1014.32 1014.63
1013.18 1014.59 1015.80 1016.72 1017.27 1017.46 1017.33 1016.99 1016.53 1016.09 1015.75 1015.57 1015.54 1015.61 1015.72 1015.80 1015.78 1015.64 1015.40 1015.08 1014.74 1014.45 1014.23 1014.10 1014.06 1014.06 1014.07 1014.05 1013.98 1013.85 1013.69 1013.52 1013.35 1013.21 1013.10 1013.01 1012.96 1012.92 1012.91 1012.93 1013.01 1013.16 1013.39 1013.69 1014.05 1014.44 1014.83 1015.18 1015.49
1013.60 1014.80 1015.79 1016.49 1016.87 1016.96 1016.82 1016.54 1016.21 1015.94 1015.77 1015.73 1015.81 1015.94 1016.06 1016.13 1016.09 1015.94 1015.70 1015.42 1015.15 1014.93 1014.79 1014.73 1014.73 1014.74 1014.73 1014.67 1014.56 1014.40 1014.21 1014.03 1013.87 1013.76 1013.69 1013.66 1013.65 1013.65 1013.67 1013.72 1013.82 1013.99 1014.23 1014.54 1014.91 1015.31 1015.69 1016.04 1016.33
1013.79 1014.78 1015.53 1016.02 1016.25 1016.27 1016.15 1015.97 1015.80 1015.71 1015.73 1015.84 1016.01 1016.19 1016.34 1016.39 1016.34 1016.20 1015.99 1015.77 1015.58 1015.46 1015.41 1015.41 1015.45 1015.47 1015.44 1015.35 1015.20 1015.01 1014.81 1014.63 1014.50 1014.44 1014.43 1014.45 1014.50 1014.55 1014.60 1014.67 1014.77 1014.93 1015.16 1015.45 1015.80 1016.17 1016.52 1016.85 1017.12
1013.83 1014.59 1015.11 1015.41 1015.53 1015.51 1015.43 1015.36 1015.35 1015.43 1015.60 1015.83 1016.09 1016.32 1016.47 1016.53 1016.48 1016.36 1016.21 1016.07 1015.98 1015.96 1016.00 1016.08 1016.16 1016.19 1016.16 1016.05 1015.87 1015.66 1015.46 1015.30 1015.21 1015.20 1015.25 1015.34 1015.44 1015.53 1015.60 1015.67 1015.77 1015.90 1016.09 1016.35 1016.66 1016.99 1017.31 1017.60 1017.85
1013.79 1014.35 1014.68 1014.83 1014.85 1014.81 1014.78 1014.80 1014.92 1015.13 1015.42 1015.74 1016.04 1016.29 1016.45 1016.51 1016.48 1016.41 1016.32 1016.27 1016.29 1016.37 1016.51 1016.66 1016.79 1016.85 1016.82 1016.71 1016.53 1016.32 1016.13 1016.00 1015.95 1015.99 1016.10 1016.23 1016.37 1016.49 1016.58 1016.65 1016.72 1016.83 1016.98 1017.20 1017.47 1017.76 1018.06 1018.33 1018.56
1013.76 1014.17 1014.37 1014.41 1014.37 1014.32 1014.33 1014.42 1014.62 1014.91 1015.25 1015.61 1015.92 1016.17 1016.32 1016.38 1016.38 1016.35 1016.34 1016.38 1016.50 1016.68 1016.90 1017.12 1017.30 1017.39 1017.39 1017.29 1017.13 1016.94 1016.78 1016.69 1016.68 1016.76 1016.90 1017.07 1017.24 1017.37 1017.47 1017.53 1017.59 1017.67 1017.80 1017.99 1018.23 1018.51 1018.80 1019.07 1019.30
1013.83 1014.14 1014.26 1014.24 1014.18 1014.14 1014.17 1014.30 1014.53 1014.84 1015.18 1015.52 1015.80 1016.02 1016.15 1016.21 1016.23 1016.25 1016.30 1016.42 1016.61 1016.87 1017.15 1017.43 1017.65 1017.78 1017.82 1017.76 1017.64 1017.50 1017.39 1017.33 1017.36 1017.46 1017.62 1017.81 1017.99 1018.13 1018.23 1018.30 1018.35 1018.43 1018.56 1018.75 1018.99 1019.28 1019.58 1019.87 1020.11
1014.01 1014.29 1014.38 1014.36 1014.31 1014.29 1014.34 1014.48 1014.70 1014.98 1015.27 1015.54 1015.76 1015.92 1016.02 1016.07 1016.11 1016.16 1016.26 1016.43 1016.66 1016.95 1017.27 1017.58 1017.83 1018.01 1018.10 1018.10 1018.05 1017.97 1017.91 1017.91 1017.96 1018.08 1018.24 1018.42 1018.60 1018.75 1018.86 1018.95 1019.03 1019.14 1019.29 1019.50 1019.77 1020.08 1020.41 1020.72 1021.00
1014.28 1014.56 1014.67 1014.69 1014.69 1014.71 1014.78 1014.90 1015.08 1015.28 1015.48 1015.66 1015.81 1015.91 1015.97 1016.02 1016.07 1016.14 1016.27 1016.45 1016.69 1016.98 1017.30 1017.61 1017.88 1018.10 1018.25 1018.33 1018.36 1018.36 1018.37 1018.41 1018.48 1018.60 1018.76 1018.93 1019.10 1019.26 1019.39 1019.52 1019.65 1019.81 1020.01 1020.27 1020.58 1020.92 1021.28 1021.62 1021.92
1014.56 1014.87 1015.03 1015.13 1015.19 1015.26 1015.35 1015.45 1015.56 1015.67 1015.77 1015.85 1015.91 1015.96 1016.00 1016.04 1016.11 1016.20 1016.34 1016.51 1016.73 1016.99 1017.27 1017.56 1017.83 1018.08 1018.29 1018.46 1018.58 1018.67 1018.76 1018.84 1018.94 1019.06 1019.20 1019.36 1019.53 1019.70 1019.87 1020.05 1020.24 1020.46 1020.72 1021.03 1021.38 1021.75 1022.13 1022.49 1022.80
1014.76 1015.11 1015.36 1015.54 1015.69 1015.81 1015.91 1015.98 1016.02 1016.03 1016.02 1016.00 1015.99 1016.00 1016.04 1016.10 1016.20 1016.31 1016.46 1016.61 1016.79 1017.00 1017.22 1017.47 1017.74 1018.01 1018.28 1018.53 1018.75 1018.93 1019.09 1019.22 1019.35 1019.47 1019.59 1019.74 1019.90 1020.09 1020.30 1020.53 1020.79 1021.08 1021.40 1021.75 1022.12 1022.50 1022.88 1023.23 1023.54
1014.81 1015.22 1015.55 1015.84 1016.08 1016.26 1016.36 1016.39 1016.35 1016.25 1016.13 1016.02 1015.95 1015.94 1016.00 1016.11 1016.26 1016.42 1016.58 1016.73 1016.87 1017.02 1017.18 1017.39 1017.63 1017.93 1018.24 1018.57 1018.88 1019.16 1019.39 1019.57 1019.71 1019.82 1019.94 1020.07 1020.23 1020.44 1020.68 1020.97 1021.29 1021.63 1021.99 1022.35 1022.72 1023.09 1023.44 1023.76 1024.05
1014.67 1015.14 1015.58 1015.98 1016.31 1016.53 1016.63 1016.61 1016.47 1016.25 1016.02 1015.82 1015.71 1015.70 1015.79 1015.98 1016.20 1016.44 1016.65 1016.81 1016.93 1017.04 1017.16 1017.32 1017.55 1017.86 1018.22 1018.62 1019.01 1019.36 1019.65 1019.87 1020.03 1020.14 1020.24 1020.36 1020.52 1020.73 1021.00 1021.33 1021.68 1022.06 1022.43 1022.79 1023.13 1023.45 1023.75 1024.03 1024.29
1014.35 1014.92 1015.47 1015.99 1016.40 1016.66 1016.75 1016.64 1016.39 1016.04 1015.68 1015.39 1015.23 1015.22 1015.37 1015.64 1015.98 1016.31 1016.60 1016.81 1016.95 1017.05 1017.14 1017.28 1017.51 1017.82 1018.22 1018.67 1019.13 1019.55 1019.89 1020.15 1020.31 1020.42 1020.50 1020.60 1020.75 1020.96 1021.25 1021.59 1021.95 1022.33 1022.69 1023.02 1023.31 1023.58 1023.82 1024.05 1024.27
1013.93 1014.61 1015.30 1015.94 1016.43 1016.72 1016.77 1016.57 1016.17 1015.67 1015.16 1014.75 1014.53 1014.51 1014.71 1015.08 1015.53 1015.99 1016.39 1016.68 1016.88 1017.00 1017.11 1017.25 1017.48 1017.81 1018.24 1018.73 1019.24 1019.71 1020.09 1020.37 1020.54 1020.64 1020.71 1020.79 1020.92 1021.12 1021.40 1021.74 1022.10 1022.45 1022.78 1023.06 1023.30 1023.50 1023.68 1023.86 1024.06
1013.48 1014.31 1015.16 1015.92 1016.50 1016.81 1016.80 1016.48 1015.92 1015.23 1014.55 1014.00 1013.68 1013.64 1013.87 1014.31 1014.88 1015.47 1015.99 1016.40 1016.69 1016.88 1017.02 1017.19 1017.44 1017.80 1018.25 1018.78 1019.32 1019.83 1020.24 1020.54 1020.72 1020.81 1020.87 1020.93 1021.05 1021.23 1021.48 1021.80 1022.13 1022.46 1022.74 1022.97 1023.15 1023.30 1023.43 1023.58 1023.77
1013.10 1014.10 1015.11 1016.01 1016.67 1016.98 1016.90 1016.45 1015.71 1014.82 1013.94 1013.22 1012.79 1012.69 1012.92 1013.41 1014.08 1014.79 1015.44 1015.98 1016.37 1016.65 1016.86 1017.07 1017.36 1017.74 1018.22 1018.78 1019.35 1019.87 1020.31 1020.63 1020.83 1020.93 1020.98 1021.04 1021.13 1021.30 1021.53 1021.82 1022.12 1022.41 1022.65 1022.84 1022.98 1023.09 1023.19 1023.33 1023.52
1012.81 1014.00 1015.18 1016.20 1016.92 1017.23 1017.08 1016.50 1015.58 1014.48 1013.40 1012.51 1011.93 1011.75 1011.94 1012.46 1013.19 1014.00 1014.77 1015.42 1015.93 1016.30 1016.60 1016.87 1017.20 1017.62 1018.12 1018.70 1019.29 1019.84 1020.31 1020.65 1020.87 1020.99 1021.06 1021.12 1021.21 1021.36 1021.58 1021.84 1022.12 1022.38 1022.59 1022.75 1022.87 1022.96 1023.06 1023.20 1023.40
1012.63 1013.97 1015.29 1016.42 1017.19 1017.49 1017.27 1016.56 1015.48 1014.20 1012.94 1011.88 1011.17 1010.88 1011.03 1011.54 1012.30 1013.18 1014.03 1014.79 1015.39 1015.86 1016.24 1016.58 1016.95 1017.40 1017.93 1018.53 1019.14 1019.72 1020.21 1020.59 1020.84 1021.00 1021.10 1021.18 1021.29 1021.45 1021.66 1021.91 1022.17 1022.41 1022.61 1022.76 1022.87 1022.97 1023.08 1023.23 1023.45
1012.50 1013.95 1015.36 1016.55 1017.34 1017.62 1017.33 1016.53 1015.33 1013.91 1012.51 1011.33 1010.50 1010.13 1010.22 1010.71 1011.47 1012.38 1013.29 1014.12 1014.80 1015.35 1015.80 1016.20 1016.62 1017.10 1017.65 1018.27 1018.90 1019.50 1020.02 1020.44 1020.74 1020.95 1021.10 1021.22 1021.37 1021.55 1021.77 1022.02 1022.28 1022.52 1022.72 1022.88 1023.01 1023.12 1023.25 1023.43 1023.66
1012.35 1013.83 1015.27 1016.45 1017.22 1017.46 1017.13 1016.27 1015.00 1013.53 1012.06 1010.81 1009.92 1009.50 1009.54 1009.99 1010.75 1011.66 1012.59 1013.46 1014.20 1014.81 1015.31 1015.76 1016.22 1016.73 1017.30 1017.92 1018.57 1019.19 1019.75 1020.22 1020.57 1020.84 1021.05 1021.23 1021.43 1021.64 1021.89 1022.16 1022.43 1022.69 1022.91 1023.09 1023.24 1023.38 1023.53 1023.72 1023.97
1012.11 1013.54 1014.91 1016.03 1016.74 1016.93 1016.56 1015.68 1014.42 1012.96 1011.51 1010.27 1009.39 1008.96 1008.99 1009.41 1010.14 1011.04 1011.97 1012.85 1013.61 1014.25 1014.80 1015.29 1015.78 1016.31 1016.90 1017.53 1018.19 1018.83 1019.42 1019.92 1020.34 1020.67 1020.94 1021.19 1021.43 1021.70 1021.98 1022.29 1022.58 1022.86 1023.11 1023.32 1023.50 1023.67 1023.85 1024.05 1024.30
1011.74 1013.02 1014.25 1015.24 1015.85 1015.97 1015.59 1014.74 1013.55 1012.18 1010.83 1009.69 1008.88 1008.50 1008.54 1008.96 1009.66 1010.52 1011.43 1012.29 1013.06 1013.72 1014.29 1014.81 1015.33 1015.88 1016.48 1017.12 1017.79 1018.44 1019.04 1019.58 1020.04 1020.42 1020.75 1021.06 1021.36 1021.68 1022.01 1022.35 1022.67 1022.99 1023.26 1023.51 1023.72 1023.92 1024.13 1024.35 1024.59
1011.26 1012.33 1013.35 1014.16 1014.63 1014.69 1014.31 1013.53 1012.45 1011.24 1010.06 1009.08 1008.40 1008.10 1008.18 1008.59 1009.26 1010.08 1010.94 1011.77 1012.52 1013.18 1013.77 1014.31 1014.86 1015.44 1016.05 1016.70 1017.37 1018.03 1018.64 1019.19 1019.68 1020.11 1020.49 1020.85 1021.20 1021.56 1021.93 1022.31 1022.67 1023.02 1023.33 1023.61 1023.86 1024.09 1024.32 1024.56 1024.81
Thickness
5788 5787 5784 5770 5746 5724 5720 5728 5735 5737 5739 5746 5748 5744 5737 5732 5728 5726 5746 5754 5755 5754 5755 5755 5756 5756 5756 5757 5757 5758 5758 5759 5759 5759 5759 5760 5761 5762 5762 5763 5763 5763 5763 5764 5765 5766 5766 5766 5766
5787 5784 5773 5754 5728 5710 5717 5731 5734 5739 5745 5748 5747 5743 5738 5736 5742 5743 5748 5752 5753 5753 5753 5753 5754 5754 5754 5754 5755 5755 5755 5756 5756 5756 5756 5757 5758 5758 5759 5759 5760 5760 5760 5760 5761 5761 5762 5762 5761
5786 5780 5759 5739 5722 5713 5721 5733 5736 5744 5749 5747 5742 5742 5738 5737 5743 5745 5750 5752 5752 5752 5751 5751 5751 5751 5751 5752 5752 5752 5752 5752 5753 5753 5753 5754 5754 5755 5755 5755 5756 5756 5756 5756 5757 5758 5759 5757 5757
5778 5765 5750 5730 5722 5727 5732 5738 5741 5742 5745 5747 5741 5735 5739 5746 5747 5749 5752 5751 5750 5749 5749 5749 5749 5749 5749 5749 5749 5749 5750 5749 5749 5749 5750 5750 5750 5751 5751 5752 5752 5752 5752 5752 5752 5753 5754 5753 5752
5771 5751 5731 5719 5723 5733 5739 5743 5744 5740 5740 5741 5739 5731 5733 5746 5751 5751 5750 5749 5747 5747 5747 5746 5746 5746 5746 5746 5746 5746 5746 5746 5746 5746 5746 5746 5746 5747 5747 5747 5747 5747 5747 5747 5747 5747 5748 5747 5747
5753 5740 5716 5711 5722 5733 5740 5745 5744 5739 5738 5739 5736 5730 5732 5744 5747 5747 5748 5746 5746 5744 5744 5744 5743 5743 5743 5743 5743 5743 5743 5743 5743 5743 5742 5742 5742 5742 5742 5743 5743 5742 5742 5742 5742 5742 5742 5742 5741
5745 5730 5717 5718 5719 5728 5739 5746 5741 5737 5736 5738 5738 5728 5731 5740 5744 5746 5745 5744 5743 5742 5741 5741 5740 5740 5740 5740 5740 5740 5740 5739 5739 5739 5739 5738 5738 5738 5738 5738 5738 5738 5737 5737 5737 5737 5736 5736 5736
5751 5732 5720 5718 5720 5726 5741 5745 5745 5741 5738 5745 5742 5729 5728 5739 5743 5743 5741 5740 5739 5739 5738 5737 5737 5737 5737 5737 5736 5736 5736 5735 5735 5735 5734 5734 5733 5733 5733 5733 5733 5733 5732 5732 5731 5731 5731 5731 5731
5753 5724 5713 5720 5723 5729 5742 5740 5743 5747 5741 5741 5742 5740 5741 5744 5741 5737 5735 5734 5734 5735 5734 5734 5734 5733 5733 5733 5732 5732 5731 5731 5730 5730 5729 5729 5728 5728 5727 5728 5728 5727 5727 5726 5726 5726 5725 5725 5725
5741 5718 5724 5734 5735 5736 5740 5739 5740 5738 5733 5733 5736 5740 5743 5740 5736 5732 5730 5728 5729 5730 5731 5731 5731 5730 5730 5730 5729 5728 5727 5727 5726 5725 5724 5724 5724 5723 5722 5722 5722 5722 5721 5721 5720 5720 5719 5719 5718
5741 5729 5735 5740 5743 5742 5740 5739 5742 5734 5727 5732 5733 5734 5736 5735 5732 5730 5728 5728 5728 5728 5729 5729 5728 5727 5727 5726 5725 5724 5724 5723 5722 5721 5720 5719 5719 5718 5717 5716 5716 5716 5715 5715 5714 5714 5713 5713 5712
5739 5738 5741 5742 5746 5743 5740 5739 5736 5734 5736 5743 5741 5739 5735 5731 5729 5728 5727 5727 5727 5726 5726 5727 5726 5725 5724 5723 5722 5721 5720 5719 5718 5717 5716 5715 5714 5713 5712 5711 5710 5710 5710 5710 5709 5708 5708 5707 5707
5738 5738 5743 5745 5745 5743 5741 5737 5736 5735 5742 5743 5741 5737 5733 5730 5729 5729 5729 5727 5726 5724 5725 5725 5724 5723 5721 5720 5719 5718 5717 5715 5714 5713 5712 5711 5710 5709 5708 5706 5706 5706 5705 5705 5704 5703 5703 5702 5702
5739 5739 5740 5742 5742 5742 5737 5734 5733 5734 5739 5738 5735 5732 5731 5729 5729 5727 5726 5725 5724 5724 5724 5724 5722 5721 5719 5717 5716 5715 5714 5712 5711 5710 5709 5708 5706 5705 5704 5703 5702 5701 5701 5700 5699 5698 5697 5697 5697
5742 5733 5732 5736 5739 5738 5735 5725 5727 5734 5735 5731 5730 5729 5728 5728 5728 5727 5726 5725 5725 5723 5723 5722 5721 5719 5717 5715 5714 5712 5711 5710 5708 5707 5706 5705 5703 5702 5701 5700 5698 5697 5696 5695 5694 5693 5693 5692 5692
5732 5721 5713 5727 5734 5734 5726 5711 5726 5732 5730 5725 5725 5724 5724 5725 5726 5726 5726 5725 5724 5723 5721 5721 5720 5717 5715 5713 5711 5710 5708 5707 5705 5704 5703 5702 5700 5699 5697 5696 5695 5694 5692 5691 5690 5688 5687 5686 5686
5712 5704 5706 5717 5729 5728 5720 5711 5723 5728 5726 5720 5720 5720 5720 5721 5722 5724 5725 5724 5723 5721 5720 5718 5717 5715 5712 5710 5709 5707 5706 5704 5703 5701 5700 5699 5698 5696 5694 5693 5691 5690 5688 5687 5686 5684 5683 5681 5681
5702 5703 5705 5708 5721 5720 5712 5710 5719 5722 5721 5717 5716 5716 5717 5717 5720 5723 5723 5722 5721 5719 5717 5715 5714 5712 5710 5708 5706 5704 5702 5701 5700 5699 5698 5696 5695 5693 5692 5690 5688 5687 5685 5683 5682 5680 5679 5678 5677
5713 5706 5703 5709 5721 5714 5707 5707 5713 5716 5715 5713 5712 5712 5713 5716 5720 5721 5721 5720 5718 5716 5714 5712 5710 5708 5707 5704 5701 5699 5697 5696 5696 5695 5695 5693 5692 5691 5689 5688 5686 5684 5682 5680 5679 5677 5675 5673 5673
5711 5703 5702 5709 5719 5712 5704 5704 5710 5713 5713 5713 5711 5710 5711 5713 5715 5717 5717 5716 5715 5713 5711 5710 5708 5706 5705 5703 5700 5697 5695 5694 5693 5692 5691 5690 5689 5688 5687 5685 5683 5682 5679 5677 5676 5675 5672 5670 5670
5708 5703 5703 5703 5709 5709 5703 5698 5704 5710 5712 5712 5711 5710 5710 5711 5711 5712 5712 5711 5711 5710 5709 5709 5706 5705 5703 5701 5698 5695 5692 5690 5688 5688 5687 5687 5687 5686 5684 5683 5681 5680 5678 5675 5674 5673 5671 5668 5667
5701 5713 5710 5705 5695 5686 5695 5676 5694 5700 5702 5705 5705 5704 5705 5707 5709 5709 5709 5708 5708 5708 5708 5707 5705 5703 5701 5699 5696 5692 5688 5684 5684 5684 5684 5684 5684 5683 5682 5681 5680 5678 5676 5674 5673 5672 5670 5668 5665
5708 5713 5707 5701 5692 5682 5683 5674 5682 5694 5694 5698 5700 5701 5703 5704 5705 5705 5706 5706 5707 5706 5705 5704 5702 5700 5698 5696 5694 5691 5687 5685 5683 5682 5681 5681 5680 5680 5680 5679 5678 5676 5675 5674 5672 5671 5669 5668 5666
5711 5702 5693 5682 5676 5667 5676 5670 5673 5683 5690 5695 5698 5699 5700 5701 5702 5702 5703 5704 5703 5703 5702 5700 5698 5696 5695 5693 5691 5688 5685 5682 5680 5678 5677 5677 5677 5677 5677 5677 5676 5675 5674 5673 5671 5670 5668 5667 5665
5700 5681 5663 5660 5652 5657 5672 5669 5673 5691 5695 5696 5696 5696 5697 5697 5697 5697 5698 5698 5698 5698 5698 5697 5695 5692 5691 5689 5687 5685 5683 5681 5678 5677 5675 5674 5673 5673 5674 5674 5673 5673 5672 5671 5670 5668 5667 5666 5664
5692 5682 5659 5650 5647 5652 5665 5664 5679 5694 5697 5697 5695 5694 5694 5693 5693 5694 5695 5695 5695 5695 5694 5693 5691 5689 5687 5685 5684 5682 5680 5678 5676 5675 5674 5672 5672 5672 5672 5672 5671 5670 5670 5669 5668 5667 5666 5665 5663
5686 5676 5676 5657 5653 5646 5653 5666 5681 5691 5690 5690 5689 5689 5688 5689 5689 5689 5691 5691 5691 5691 5690 5690 5688 5685 5683 5681 5680 5678 5677 5675 5674 5673 5672 5671 5670 5670 5669 5669 5668 5667 5667 5666 5665 5664 5663 5662 5661
5690 5677 5661 5652 5642 5637 5647 5655 5663 5677 5680 5682 5682 5682 5683 5684 5685 5685 5686 5687 5687 5687 5687 5686 5684 5682 5679 5677 5676 5675 5673 5672 5671 5670 5668 5668 5667 5667 5666 5665 5664 5663 5663 5662 5661 5661 5660 5659 5658
5676 5669 5658 5646 5643 5633 5631 5648 5676 5676 5677 5676 5677 5679 5679 5679 5680 5681 5681 5682 5682 5681 5681 5680 5679 5677 5674 5673 5671 5670 5669 5668 5667 5665 5665 5664 5663 5663 5662 5662 5661 5659 5659 5658 5658 5657 5656 5655 5655
5678 5669 5656 5645 5639 5633 5628 5644 5679 5676 5675 5674 5674 5675 5675 5675 5676 5676 5676 5675 5674 5674 5675 5674 5673 5672 5670 5669 5667 5665 5664 5663 5662 5661 5660 5660 5659 5659 5658 5657 5656 5656 5655 5654 5653 5653 5652 5651 5651